Location: Harwich
(41.7160°N, 69.9939°W)
Time: 01:31:04
(UTC+02:00)

AO-73 - Pass Details

Date: 18 September 2024
Orbit: 548 x 615 km, 97.7° (Epoch: 10 October)

Event Time Altitude Azimuth Distance (km) Brightness Sun altitude
Rises 09:38:13 0° 15° (NNE) 2,795 ? -29.9°
Reaches altitude 10° 09:40:25 10° 18° (NNE) 1,881 ? -29.6°
Enters shadow 09:42:42 32° 28° (NNE) 988 ? -29.2°
